Home   Weather   Cincinnati   Past weeks
Flag for USA

Past Weather in Cincinnati, Ohio, USA — Yesterday and Last 2 Weeks

Now
48 °F

Overcast.


Feels Like: 42 °F
Forecast: 58 / 46 °F
Wind: 14 mph from Northwest

Location: Cincinnati Municipal Airport Lunken Field

Current Time: Oct 16, 2019 at 10:35:01 am

Latest Report: Oct 16, 2019 at 9:53 am


Visibility: 10 mi

Pressure: 29.86 "Hg

Humidity: 74%

Dew Point: 40 °F

Location of CincinnatiLocation

Past Weather in Cincinnati — Graph

°F

Cincinnati Temperature Yesterday

Maximum temperature yesterday: 75 °F (at 2:53 pm)
Minimum temperature yesterday: 37 °F (at 7:17 am)
Average temperature yesterday: 52 °F

High & Low Weather Summary for the Past Weeks

 TemperatureHumidityPressure
High95 °F (Oct 2, 3:53 pm)100% (Oct 2, 4:06 am)30.30 "Hg (Oct 2, 4:06 am)
Low33 °F (Oct 13, 6:24 am)28% (Oct 13, 4:53 pm)29.70 "Hg (Oct 16, 3:53 am)
Average60 °F76%30.08 "Hg
* Reported Oct 1 8:53 am — Oct 16 8:53 am, Cincinnati. Weather by CustomWeather, © 2019

Note: Actual official high and low records may vary slightly from our data, if they occured in-between our weather recording intervals... More about our weather records

Advertising

Cincinnati Weather History for the Previous 24 Hours

Scroll right to see more
 ConditionsComfort  
Time TempWeatherWind HumidityBarometerVisibility
8:53 am
Wed, Oct 16
48 °FBroken clouds.9 mph74%29.83 "Hg10 mi
7:53 am48 °FPartly sunny.12 mph80%29.80 "Hg10 mi
7:12 am49 °FOvercast.10 mph84%29.79 "Hg10 mi
6:53 am49 °FLight rain. Overcast.5 mph84%29.78 "Hg8 mi
6:05 am48 °FRain. Fog.9 mph89%29.78 "Hg4 mi
4:53 am52 °FLight rain. Overcast.10 mph86%29.78 "Hg7 mi
4:21 am54 °FLight rain. Overcast.8 mph83%29.76 "Hg10 mi
3:53 am62 °FMostly cloudy.6 mph96%29.70 "Hg10 mi
2:53 am62 °FMostly cloudy.5 mph96%29.73 "Hg10 mi
1:53 am63 °FLight rain. Overcast.7 mph93%29.77 "Hg10 mi
12:53 am63 °FLight rain. Mostly cloudy.8 mph93%29.77 "Hg10 mi
12:21 am65 °FThundershowers. Overcast.16 mph85%29.79 "Hg10 mi
11:53 pm
Tue, Oct 15
66 °FPassing clouds.13 mph73%29.78 "Hg10 mi
10:53 pm63 °FPassing clouds.3 mph78%29.80 "Hg10 mi
9:53 pm63 °FPassing clouds.7 mph75%29.82 "Hg10 mi
8:53 pm68 °FPassing clouds.12 mph63%29.83 "Hg10 mi
7:53 pm63 °FPassing clouds.7 mph73%29.85 "Hg10 mi
6:53 pm71 °FPassing clouds.12 mph55%29.85 "Hg10 mi
5:53 pm73 °FPassing clouds.10 mph50%29.85 "Hg10 mi
4:53 pm74 °FPassing clouds.16 mph48%29.86 "Hg10 mi
3:53 pm75 °FPassing clouds.16 mph42%29.88 "Hg10 mi
2:53 pm75 °FScattered clouds.14 mph37%29.91 "Hg10 mi
1:53 pm73 °FSunny.10 mph38%29.95 "Hg10 mi
12:53 pm70 °FSunny.8 mph42%29.99 "Hg10 mi
11:53 am64 °FSunny.7 mph49%30.04 "Hg10 mi
10:53 am54 °FSunny.No wind77%30.08 "Hg10 mi
Weather by CustomWeather, © 2019

See weather overview